Date,Time,Wetness (Wet Dry or Ice),Wind Speed (m/s),Temperature (C),Humidity (%),Pressure (mb),Radiation (W/m^2)
2023-04-11,00:00:00,DRY,6.33,7.42,48.3,776.16,294.9
2023-04-12,00:00:00,DRY,5.14,8.79,30.2,774.78,295.0
2023-04-13,00:00:00,DRY,4.20,9.59,25.7,774.80,297.4
2023-04-14,00:00:00,DRY,2.54,10.96,19.1,774.39,304.2
2023-04-15,00:00:00,DRY,2.07,11.81,19.1,773.21,306.0
2023-04-16,00:00:00,DRY,1.52,10.54,19.6,771.25,308.8
2023-04-17,00:00:00,DRY,1.48,9.33,28.7,766.90,302.1
2023-04-18,00:00:00,DRY,4.25,3.93,85.9,764.71,258.7
2023-04-19,00:00:00,DRY,3.99,7.47,26.5,768.41,311.5
2023-04-20,00:00:00,DRY,2.39,9.99,15.8,769.72,311.0
2023-04-21,00:00:00,DRY,3.63,5.69,58.9,767.38,310.7
2023-04-22,00:00:00,DRY,2.93,7.27,76.8,768.37,310.8
2023-04-23,00:00:00,DRY,2.11,9.17,48.5,770.22,287.5
2023-04-24,00:00:00,DRY,1.97,11.56,41.3,771.41,303.9
2023-04-25,00:00:00,DRY,1.35,12.54,36.9,772.17,314.9
2023-04-26,00:00:00,DRY,1.62,12.65,34.2,771.66,309.9
2023-04-27,00:00:00,DRY,1.24,13.06,28.7,771.50,285.8
2023-04-28,00:00:00,DRY,1.54,12.91,44.2,772.41,309.5
2023-04-29,00:00:00,DRY,1.60,13.03,48.3,775.82,305.3
2023-04-30,00:00:00,DRY,2.38,13.11,49.3,776.23,298.4
2023-05-01,00:00:00,DRY,2.00,13.71,29.6,775.19,316.8
2023-05-02,00:00:00,DRY,3.65,14.12,34.3,773.02,335.4
2023-05-03,00:00:00,DRY,6.15,10.83,49.2,772.24,315.5
2023-05-04,00:00:00,DRY,3.76,12.04,4.8,775.27,318.3
2023-05-05,00:00:00,DRY,3.78,10.71,8.4,775.92,320.4
2023-05-06,00:00:00,DRY,6.93,6.81,74.9,775.13,302.1
2023-05-07,00:00:00,DRY,7.79,8.24,42.5,775.01,325.7
2023-05-08,00:00:00,DRY,9.29,10.26,29.8,775.95,323.4
2023-05-09,00:00:00,DRY,7.62,12.62,9.6,777.00,326.9
2023-05-10,00:00:00,DRY,5.62,14.26,19.2,776.67,322.8
2023-05-11,00:00:00,DRY,4.21,15.02,21.6,775.16,320.7
2023-05-12,00:00:00,DRY,2.20,14.56,20.0,773.63,322.0
2023-05-13,00:00:00,DRY,3.38,11.37,30.7,772.98,326.0
2023-05-14,00:00:00,DRY,2.70,12.78,21.0,774.54,327.7
2023-05-15,00:00:00,DRY,1.72,12.75,17.3,775.20,326.0
2023-05-16,00:00:00,DRY,2.42,11.70,28.6,772.57,321.4
2023-05-17,00:00:00,DRY,5.55,8.51,32.8,772.34,330.8
2023-05-18,00:00:00,DRY,5.99,5.70,66.0,772.78,330.8
2023-05-19,00:00:00,DRY,3.79,7.87,21.2,774.44,334.6
2023-05-20,00:00:00,DRY,2.32,9.46,15.3,772.32,330.0
2023-05-21,00:00:00,DRY,2.51,7.32,22.1,769.61,324.9
2023-05-22,00:00:00,DRY,3.56,4.45,69.8,769.31,251.6
2023-05-23,00:00:00,DRY,4.54,2.59,81.6,769.76,286.5
2023-05-24,00:00:00,DRY,1.55,5.88,31.1,769.71,310.2
2023-05-25,00:00:00,DRY,1.66,3.16,94.9,769.56,205.2
2023-05-26,00:00:00,DRY,1.36,3.31,93.8,770.07,130.5
2023-05-27,00:00:00,DRY,2.47,3.81,81.3,770.30,248.9
2023-05-28,00:00:00,DRY,2.88,5.02,80.7,770.83,274.5
2023-05-29,00:00:00,DRY,2.83,5.02,76.5,771.04,271.6
2023-05-30,00:00:00,DRY,2.24,5.97,63.4,772.62,219.7
2023-05-31,00:00:00,DRY,2.24,8.10,47.9,772.76,285.6
2023-06-01,00:00:00,DRY,5.05,8.64,61.4,769.82,289.7
2023-06-02,00:00:00,DRY,3.84,9.89,26.5,769.28,333.2
2023-06-03,00:00:00,DRY,4.93,10.45,46.6,770.55,328.1
2023-06-04,00:00:00,DRY,2.57,10.30,89.3,771.85,297.2
2023-06-05,00:00:00,DRY,4.32,10.08,83.0,771.28,187.3
2023-06-06,00:00:00,WET,7.67,9.40,93.2,766.49,147.9
2023-06-07,00:00:00,WET,8.89,9.06,86.4,765.75,166.8
2023-06-08,00:00:00,DRY,5.75,8.80,40.1,769.53,320.1
2023-06-09,00:00:00,DRY,3.84,9.71,23.6,771.04,325.0
2023-06-10,00:00:00,DRY,3.21,10.60,23.1,771.95,329.0
2023-06-11,00:00:00,DRY,2.68,11.69,35.9,773.48,332.3
2023-06-12,00:00:00,DRY,2.45,10.94,73.3,773.98,324.5
2023-06-13,00:00:00,DRY,2.15,14.16,27.4,774.35,332.4
2023-06-14,00:00:00,DRY,1.60,15.20,25.8,774.48,334.5
2023-06-15,00:00:00,DRY,1.79,15.37,30.0,775.09,327.9
2023-06-16,00:00:00,DRY,1.39,15.40,36.8,775.98,333.4
2023-06-17,00:00:00,DRY,2.49,15.79,27.2,776.59,333.6
2023-06-18,00:00:00,DRY,2.65,14.23,33.3,775.21,331.8
2023-06-19,00:00:00,DRY,3.00,12.37,57.8,773.57,329.1
2023-06-20,00:00:00,DRY,2.23,12.05,63.0,772.89,314.3
2023-06-21,00:00:00,DRY,2.32,12.42,44.1,772.71,323.8
2023-06-22,00:00:00,DRY,1.52,14.08,49.5,774.85,331.8
2023-06-23,00:00:00,DRY,2.31,15.38,30.6,776.60,336.0
2023-06-24,00:00:00,DRY,3.26,15.09,13.3,775.49,339.4
2023-06-25,00:00:00,DRY,3.32,14.88,9.1,773.09,338.9
2023-06-26,00:00:00,DRY,2.51,17.77,10.7,772.53,334.9
2023-06-27,00:00:00,DRY,3.45,19.35,7.8,773.69,274.7
2023-06-28,00:00:00,DRY,5.83,19.13,13.4,777.11,274.6
2023-06-29,00:00:00,DRY,2.30,20.93,16.8,781.12,312.8
2023-06-30,00:00:00,DRY,3.86,19.73,17.6,781.35,326.9
2023-07-01,00:00:00,DRY,3.01,17.79,21.5,778.51,289.9
2023-07-02,00:00:00,DRY,2.58,17.82,18.4,776.36,325.4
2023-07-03,00:00:00,DRY,2.52,19.19,17.4,777.46,324.9
2023-07-04,00:00:00,DRY,3.74,19.84,36.7,779.92,283.4
2023-07-05,00:00:00,DRY,4.23,19.46,42.2,780.07,316.8
2023-07-06,00:00:00,DRY,4.03,18.17,17.9,777.78,323.8
2023-07-07,00:00:00,DRY,2.93,14.20,28.8,775.02,328.2
2023-07-08,00:00:00,DRY,2.88,13.56,35.1,776.74,331.1
2023-07-09,00:00:00,DRY,2.24,14.96,33.7,777.61,331.5
2023-07-10,00:00:00,DRY,1.53,17.33,35.9,777.81,329.6
2023-07-11,00:00:00,DRY,3.29,21.58,11.9,778.54,324.7
2023-07-12,00:00:00,DRY,2.11,23.52,17.2,779.69,309.0
2023-07-13,00:00:00,DRY,3.79,23.42,18.3,781.06,305.1
2023-07-14,00:00:00,DRY,6.10,21.97,14.8,781.89,288.1
2023-07-15,00:00:00,DRY,8.56,19.84,16.4,780.24,306.7
2023-07-16,00:00:00,DRY,6.96,16.02,25.8,776.86,327.6
2023-07-17,00:00:00,DRY,2.90,13.93,24.1,773.40,326.3
2023-07-18,00:00:00,DRY,2.92,15.35,27.2,774.27,326.6
2023-07-19,00:00:00,DRY,4.88,17.66,21.4,778.18,314.1
2023-07-20,00:00:00,DRY,2.43,19.21,25.7,779.49,317.6
2023-07-21,00:00:00,DRY,2.97,18.85,37.2,778.72,319.0
2023-07-22,00:00:00,DRY,4.77,16.33,24.3,777.12,327.0
2023-07-23,00:00:00,DRY,4.25,14.57,37.7,776.61,328.5
2023-07-24,00:00:00,DRY,2.07,16.56,25.1,777.03,325.6
2023-07-25,00:00:00,DRY,2.23,19.67,14.0,777.49,317.3
2023-07-26,00:00:00,DRY,3.91,18.67,22.4,777.85,316.0
2023-07-27,00:00:00,DRY,3.48,17.90,10.4,777.92,324.2
2023-07-28,00:00:00,DRY,3.80,16.47,10.6,776.11,327.9
2023-07-29,00:00:00,DRY,1.75,18.33,10.5,775.64,325.7
2023-07-30,00:00:00,DRY,2.95,19.30,7.8,777.87,324.1
2023-07-31,00:00:00,DRY,2.28,22.30,11.9,781.03,309.8
2023-08-01,00:00:00,DRY,1.43,22.81,17.9,781.19,292.6
2023-08-02,00:00:00,DRY,2.36,21.90,19.4,779.68,302.7
2023-08-03,00:00:00,DRY,2.21,21.98,14.8,778.75,307.0
2023-08-04,00:00:00,DRY,1.68,19.53,17.8,778.49,309.8
2023-08-05,00:00:00,DRY,4.14,15.27,36.0,777.22,319.5
2023-08-06,00:00:00,DRY,3.51,15.72,12.0,776.10,321.9
2023-08-07,00:00:00,DRY,1.80,16.63,10.4,774.94,319.3
2023-08-08,00:00:00,DRY,2.35,16.59,27.7,773.89,318.5
2023-08-09,00:00:00,DRY,2.60,17.71,25.0,775.56,309.8
2023-08-10,00:00:00,DRY,1.93,22.37,18.6,779.40,298.9
2023-08-11,00:00:00,DRY,2.93,23.52,15.6,781.20,293.3
2023-08-12,00:00:00,DRY,4.35,23.40,21.0,781.65,294.5
2023-08-13,00:00:00,DRY,2.99,24.21,18.2,780.30,298.5
2023-08-14,00:00:00,DRY,1.74,22.93,20.6,778.88,230.7
2023-08-15,00:00:00,DRY,2.55,22.32,18.8,778.42,300.6
2023-08-16,00:00:00,DRY,2.07,20.47,18.2,778.04,302.3
2023-08-17,00:00:00,DRY,3.36,19.66,15.9,777.00,304.5
2023-08-18,00:00:00,DRY,4.01,18.71,18.6,776.19,309.6
2023-08-19,00:00:00,DRY,4.08,19.86,20.7,776.90,299.8
2023-08-20,00:00:00,DRY,2.23,18.20,42.4,777.89,271.2
2023-08-21,00:00:00,DRY,2.22,16.83,51.6,778.23,251.7
2023-08-22,00:00:00,DRY,1.44,17.64,48.9,777.43,255.1
2023-08-23,00:00:00,DRY,1.82,18.76,41.5,776.12,227.1
2023-08-24,00:00:00,DRY,1.80,19.05,35.0,775.83,224.0
2023-08-25,00:00:00,DRY,2.60,19.05,34.1,776.48,236.1
2023-08-26,00:00:00,DRY,3.21,13.20,74.6,776.35,81.2
2023-08-27,00:00:00,DRY,4.46,17.06,53.3,778.60,276.9
2023-08-28,00:00:00,DRY,6.80,16.96,33.2,779.38,297.8
2023-08-29,00:00:00,DRY,5.58,16.25,12.1,777.16,302.5
2023-08-30,00:00:00,DRY,3.84,16.22,14.0,775.91,303.1
2023-08-31,00:00:00,DRY,1.80,16.58,24.4,775.50,299.0
2023-09-01,00:00:00,DRY,3.05,17.59,23.9,777.23,249.9
2023-09-02,00:00:00,DRY,2.36,14.91,64.3,777.78,179.5
2023-09-03,00:00:00,DRY,5.29,11.74,55.5,773.58,290.1
2023-09-04,00:00:00,DRY,4.06,8.31,62.9,771.25,281.4
2023-09-05,00:00:00,DRY,3.92,12.49,30.1,773.07,279.0
2023-09-06,00:00:00,DRY,2.69,13.99,47.1,773.47,240.8
2023-09-07,00:00:00,DRY,4.01,15.32,27.1,774.44,242.6
2023-09-08,00:00:00,DRY,4.24,14.24,43.0,775.34,265.6
2023-09-09,00:00:00,DRY,3.45,13.47,20.7,774.71,288.5
2023-09-10,00:00:00,DRY,3.06,12.25,49.7,774.20,257.8
2023-09-11,00:00:00,DRY,2.19,13.59,39.3,775.14,271.0
2023-09-12,00:00:00,DRY,2.14,12.41,52.2,774.93,262.7
2023-09-13,00:00:00,DRY,3.22,9.26,78.6,774.11,245.4
2023-09-14,00:00:00,DRY,4.93,7.59,96.4,773.67,200.0
2023-09-15,00:00:00,DRY,5.16,8.47,80.6,773.39,228.4
2023-09-16,00:00:00,DRY,4.22,10.13,71.1,773.25,250.0
2023-09-17,00:00:00,DRY,2.39,10.34,67.6,772.92,200.3
2023-09-18,00:00:00,DRY,1.82,11.25,16.9,773.60,282.3
2023-09-19,00:00:00,DRY,2.86,9.49,49.5,774.40,273.0
2023-09-20,00:00:00,DRY,1.73,13.41,19.2,774.56,275.8
2023-09-21,00:00:00,DRY,1.78,16.47,12.1,775.34,260.2
2023-09-22,00:00:00,DRY,1.70,15.41,18.4,775.49,250.6
2023-09-23,00:00:00,DRY,4.18,12.74,65.0,775.54,273.1
2023-09-24,00:00:00,DRY,4.76,11.62,55.6,775.44,269.2
2023-09-25,00:00:00,DRY,4.81,12.16,45.0,776.44,275.3
2023-09-26,00:00:00,DRY,2.62,12.63,71.9,777.45,267.9
2023-09-27,00:00:00,DRY,1.75,14.56,23.0,776.61,271.8
2023-09-28,00:00:00,DRY,1.97,14.75,23.6,775.65,269.1
2023-09-29,00:00:00,DRY,2.33,16.04,16.7,774.63,235.3
2023-09-30,00:00:00,DRY,6.30,14.65,30.4,775.33,254.4
2023-10-01,00:00:00,DRY,6.28,15.29,34.2,777.37,263.0
2023-10-02,00:00:00,DRY,3.40,17.16,32.4,778.69,233.9
2023-10-03,00:00:00,DRY,1.71,17.63,29.8,779.29,226.2
2023-10-04,00:00:00,DRY,2.59,16.61,30.2,779.33,223.3
2023-10-05,00:00:00,DRY,2.72,17.15,25.5,779.34,197.8
2023-10-06,00:00:00,DRY,1.94,15.87,31.3,778.21,255.1
2023-10-07,00:00:00,DRY,1.98,15.14,34.4,776.98,243.1
2023-10-08,00:00:00,DRY,1.63,15.31,36.4,776.46,241.9
2023-10-09,00:00:00,DRY,1.43,16.07,32.1,777.43,182.8
2023-10-10,00:00:00,DRY,2.54,16.19,33.7,778.74,201.8
2023-10-11,00:00:00,DRY,1.57,15.59,35.2,779.10,235.9
2023-10-12,00:00:00,DRY,1.61,15.23,33.3,778.09,241.4
2023-10-13,00:00:00,DRY,1.74,15.16,38.1,777.62,242.7
2023-10-14,00:00:00,DRY,1.54,15.40,25.6,779.26,244.6
2023-10-15,00:00:00,DRY,1.85,15.50,29.2,779.78,215.3
2023-10-16,00:00:00,DRY,3.27,14.38,33.6,777.15,202.1
2023-10-17,00:00:00,DRY,4.10,13.01,43.9,773.41,230.5
2023-10-18,00:00:00,DRY,2.44,14.18,13.7,773.07,248.5
2023-10-19,00:00:00,DRY,1.98,15.44,11.6,774.35,242.7
2023-10-20,00:00:00,DRY,4.49,11.59,62.7,773.33,235.6
2023-10-21,00:00:00,DRY,3.17,11.29,15.7,770.91,242.2
2023-10-22,00:00:00,WET,5.61,7.05,95.3,767.28,158.2
2023-10-23,00:00:00,WET,3.50,5.03,92.2,769.31,195.2
2023-10-24,00:00:00,DRY,2.61,6.32,70.2,773.15,151.1
2023-10-25,00:00:00,DRY,4.28,10.43,44.5,775.88,239.9
2023-10-26,00:00:00,DRY,2.60,12.89,30.4,777.18,241.2
2023-10-27,00:00:00,DRY,3.29,12.67,24.5,776.11,237.1
2023-10-28,00:00:00,DRY,2.46,11.00,39.5,773.74,227.7
2023-10-29,00:00:00,DRY,3.35,11.50,51.6,770.50,235.4
2023-10-30,00:00:00,DRY,3.24,11.35,66.3,768.56,197.6
2023-10-31,00:00:00,DRY,4.81,11.21,66.4,769.42,161.7
2023-11-01,00:00:00,DRY,1.82,11.77,55.0,775.11,215.0
2023-11-02,00:00:00,DRY,3.02,12.70,26.4,778.74,228.8
2023-11-03,00:00:00,DRY,4.60,11.32,34.6,778.00,228.6
2023-11-04,00:00:00,DRY,4.00,11.26,32.1,774.83,228.4
2023-11-05,00:00:00,DRY,3.53,10.21,33.4,773.22,225.0
2023-11-06,00:00:00,DRY,3.56,8.33,93.9,774.49,185.9
2023-11-07,00:00:00,DRY,6.04,4.47,95.7,775.36,174.0
2023-11-08,00:00:00,DRY,5.99,11.25,10.9,776.60,228.0
2023-11-09,00:00:00,DRY,4.04,12.61,15.8,777.35,219.3
2023-11-10,00:00:00,DRY,2.98,12.38,36.1,778.06,213.7
2023-11-11,00:00:00,DRY,2.23,12.55,46.6,778.02,213.6
2023-11-12,00:00:00,DRY,3.13,13.19,37.0,777.15,207.4
2023-11-13,00:00:00,DRY,3.63,12.45,32.4,777.73,191.8
2023-11-14,00:00:00,DRY,1.82,13.43,26.0,778.87,193.0
2023-11-15,00:00:00,DRY,3.38,13.52,26.2,779.17,168.1
2023-11-16,00:00:00,DRY,2.45,12.24,31.9,779.84,200.4
2023-11-17,00:00:00,DRY,3.31,12.25,22.9,779.09,204.9
2023-11-18,00:00:00,DRY,1.67,12.43,28.2,778.90,202.4
2023-11-19,00:00:00,DRY,1.44,10.54,34.7,777.51,198.9
2023-11-20,00:00:00,DRY,2.63,8.86,39.7,774.10,185.0
2023-11-21,00:00:00,DRY,3.78,9.72,34.8,775.20,159.4
2023-11-22,00:00:00,DRY,3.17,10.09,65.5,777.32,146.5
2023-11-23,00:00:00,DRY,3.55,10.50,55.5,776.46,173.1
2023-11-24,00:00:00,DRY,4.19,8.21,64.5,775.41,192.3
2023-11-25,00:00:00,DRY,4.07,6.60,71.7,773.05,196.0
2023-11-26,00:00:00,DRY,2.67,7.04,41.6,771.26,184.6
2023-11-27,00:00:00,DRY,2.03,8.91,21.0,772.71,161.0
2023-11-28,00:00:00,,,,,,
2023-11-29,00:00:00,DRY,3.09,8.99,69.6,772.10,190.5
2023-11-30,00:00:00,WET,6.28,8.75,57.3,766.83,123.7
2023-12-01,00:00:00,WET,6.31,4.97,98.7,763.72,87.9
2023-12-02,00:00:00,DRY,1.95,8.60,32.1,770.50,186.9
2023-12-03,00:00:00,DRY,1.72,7.52,74.0,772.92,176.0
2023-12-04,00:00:00,DRY,2.50,9.43,43.3,773.60,176.4
2023-12-05,00:00:00,DRY,3.21,9.55,47.6,772.71,115.5
2023-12-06,00:00:00,DRY,2.54,9.55,44.9,773.59,74.3
2023-12-07,00:00:00,DRY,2.49,11.30,15.0,775.16,109.2
2023-12-08,00:00:00,DRY,2.31,12.76,14.4,777.99,179.0
2023-12-09,00:00:00,DRY,2.69,14.76,7.0,779.65,185.1
2023-12-10,00:00:00,DRY,2.03,14.80,19.9,778.96,179.2
2023-12-11,00:00:00,DRY,3.50,11.66,24.2,777.20,180.8
2023-12-12,00:00:00,DRY,2.01,10.30,31.1,775.38,172.4
2023-12-13,00:00:00,DRY,2.08,9.85,19.6,774.61,183.7
2023-12-14,00:00:00,DRY,1.60,10.28,16.4,774.82,181.1
2023-12-15,00:00:00,DRY,1.71,10.74,19.3,775.76,179.2
2023-12-16,00:00:00,DRY,2.56,10.03,31.3,776.06,178.7
2023-12-17,00:00:00,DRY,3.20,6.61,35.3,776.64,178.8
2023-12-18,00:00:00,DRY,3.31,7.63,9.9,777.96,188.6
2023-12-19,00:00:00,DRY,3.10,6.29,17.1,778.18,188.7
2023-12-20,00:00:00,DRY,3.20,5.91,28.8,779.06,189.8
2023-12-21,00:00:00,DRY,5.77,4.49,66.8,778.53,164.4
2023-12-22,00:00:00,DRY,6.54,1.88,87.9,775.26,147.6
2023-12-23,00:00:00,DRY,4.98,1.07,100.0,772.24,105.2
2023-12-24,00:00:00,DRY,1.13,1.41,98.3,771.82,80.2
2023-12-25,00:00:00,DRY,1.99,1.27,90.5,771.84,79.7
2023-12-26,00:00:00,DRY,2.69,3.80,47.4,772.23,165.9
2023-12-27,00:00:00,DRY,1.37,9.43,8.6,772.96,183.5
2023-12-28,00:00:00,DRY,2.94,10.89,10.5,774.11,175.8
2023-12-29,00:00:00,DRY,1.50,10.23,27.2,776.10,147.2
2023-12-30,00:00:00,DRY,1.34,10.11,48.3,775.52,172.9
2023-12-31,00:00:00,DRY,1.28,10.77,16.0,775.12,174.2
2024-01-01,00:00:00,DRY,3.68,9.33,67.3,774.19,170.3
2024-01-02,00:00:00,DRY,3.54,8.40,75.9,774.49,153.9
2024-01-03,00:00:00,DRY,5.47,8.18,74.0,775.43,112.9
2024-01-04,00:00:00,DRY,1.86,8.68,45.3,775.55,179.4
2024-01-05,00:00:00,DRY,1.92,7.41,64.8,774.56,148.9
2024-01-06,00:00:00,DRY,3.60,6.64,50.3,773.30,175.0
2024-01-07,00:00:00,DRY,1.66,8.17,62.5,774.54,166.8
2024-01-08,00:00:00,DRY,1.68,8.02,63.8,774.88,141.0
2024-01-09,00:00:00,DRY,1.34,7.42,58.8,773.51,147.7
2024-01-10,00:00:00,DRY,2.35,6.72,55.5,773.09,154.9
2024-01-11,00:00:00,DRY,6.58,6.48,35.3,769.79,195.3
2024-01-12,00:00:00,DRY,10.39,5.77,50.5,766.59,157.0
2024-01-13,00:00:00,DRY,9.96,5.76,93.8,767.96,103.0
2024-01-14,00:00:00,DRY,7.79,7.35,73.7,771.83,149.4
2024-01-15,00:00:00,DRY,8.15,9.62,38.7,773.08,145.3
2024-01-16,00:00:00,WET,8.48,7.14,66.9,769.88,113.3
2024-01-17,00:00:00,DRY,8.24,5.25,67.2,769.40,106.7
2024-01-18,00:00:00,DRY,5.75,4.77,63.9,768.43,123.5
2024-01-19,00:00:00,DRY,4.92,2.58,75.3,769.44,106.7
2024-01-20,00:00:00,DRY,3.76,3.47,45.8,771.90,194.1
2024-01-21,00:00:00,DRY,5.20,4.69,40.0,775.83,205.4
2024-01-22,00:00:00,DRY,5.35,10.20,3.1,779.64,214.9
2024-01-23,00:00:00,DRY,2.75,13.05,5.8,781.00,211.0
2024-01-24,00:00:00,DRY,2.87,9.13,13.7,781.04,212.4
2024-01-25,00:00:00,DRY,4.44,7.91,9.0,778.39,186.8
2024-01-26,00:00:00,DRY,5.50,7.55,20.5,776.75,212.0
2024-01-27,00:00:00,DRY,6.03,8.57,10.5,776.18,206.5
2024-01-28,00:00:00,DRY,5.55,8.00,26.5,775.02,192.7
2024-01-29,00:00:00,DRY,4.77,7.43,29.8,775.65,204.5
2024-01-30,00:00:00,DRY,3.76,7.70,31.0,777.01,214.9
2024-01-31,00:00:00,DRY,3.06,6.47,28.8,776.17,214.7
2024-02-01,00:00:00,DRY,4.13,5.77,31.6,776.00,216.3
2024-02-02,00:00:00,DRY,1.35,6.68,27.9,777.64,214.0
2024-02-03,00:00:00,DRY,1.93,5.58,31.1,775.67,200.3
2024-02-04,00:00:00,DRY,4.00,5.27,29.0,775.06,187.6
2024-02-05,00:00:00,DRY,3.61,5.50,21.6,776.40,201.2
2024-02-06,00:00:00,DRY,1.61,7.63,19.3,777.52,185.6
2024-02-07,00:00:00,DRY,2.00,8.83,16.3,777.62,208.0
2024-02-08,00:00:00,DRY,4.99,9.42,11.1,775.59,209.4
2024-02-09,00:00:00,DRY,6.65,8.57,64.3,772.22,145.1
2024-02-10,00:00:00,WET,6.81,7.71,98.6,771.62,73.1
2024-02-11,00:00:00,DRY,4.18,10.00,49.0,774.58,232.8
2024-02-12,00:00:00,DRY,3.35,12.77,27.5,775.45,234.1
2024-02-13,00:00:00,DRY,5.15,13.15,13.9,774.49,204.0
2024-02-14,00:00:00,DRY,5.83,10.05,42.2,771.17,220.5
2024-02-15,00:00:00,DRY,2.67,6.46,64.0,774.24,88.4
2024-02-16,00:00:00,DRY,2.88,11.02,10.9,777.39,239.7
2024-02-17,00:00:00,DRY,2.70,14.81,4.2,779.03,241.9
2024-02-18,00:00:00,DRY,5.67,13.80,14.5,778.48,245.0
2024-02-19,00:00:00,DRY,6.48,13.31,6.9,777.48,625.6
2024-02-20,00:00:00,DRY,2.44,10.85,19.9,779.60,201.2
2024-02-21,00:00:00,DRY,4.17,11.49,14.6,778.79,246.3
2024-02-22,00:00:00,DRY,2.46,10.67,14.4,779.22,251.1
2024-02-23,00:00:00,DRY,4.25,10.25,19.0,779.25,250.8
2024-02-24,00:00:00,DRY,8.26,8.02,30.3,777.07,248.2
2024-02-25,00:00:00,DRY,4.66,10.73,19.8,777.41,253.1
2024-02-26,00:00:00,DRY,1.25,13.57,11.7,776.46,234.7
2024-02-27,00:00:00,DRY,2.32,9.85,12.1,773.86,218.6
2024-02-28,00:00:00,DRY,6.08,8.29,12.7,774.68,258.9
2024-02-29,00:00:00,DRY,4.17,7.92,28.8,775.28,271.7
2024-03-01,00:00:00,DRY,6.92,2.84,91.8,772.75,219.0
2024-03-02,00:00:00,WET,6.74,0.00,100.0,770.90,157.0
2024-03-03,00:00:00,ICE,6.93,-0.16,90.4,772.44,165.2
2024-03-04,00:00:00,DRY,4.70,5.21,38.5,774.62,262.4
2024-03-05,00:00:00,DRY,1.41,8.19,19.4,774.36,262.6
2024-03-06,00:00:00,DRY,1.86,7.59,20.0,773.26,241.4
2024-03-07,00:00:00,DRY,3.77,4.49,42.2,772.33,250.3
2024-03-08,00:00:00,DRY,4.43,1.43,81.7,771.58,266.3
2024-03-09,00:00:00,DRY,6.75,3.54,59.5,770.90,267.3
2024-03-10,00:00:00,DRY,5.35,6.25,12.7,771.62,266.3
2024-03-11,00:00:00,DRY,2.05,8.33,6.6,772.63,259.6
2024-03-12,00:00:00,DRY,3.36,8.87,8.5,771.85,267.5
2024-03-13,00:00:00,WET,6.44,6.91,69.8,771.12,262.6
2024-03-14,00:00:00,DRY,2.12,12.76,17.0,774.03,273.7
2024-03-15,00:00:00,DRY,2.08,15.04,20.1,775.63,273.2
2024-03-16,00:00:00,DRY,5.01,13.14,18.4,774.69,278.7
2024-03-17,00:00:00,DRY,4.26,10.96,34.3,773.62,271.2
2024-03-18,00:00:00,DRY,2.96,9.12,40.3,772.92,278.3
2024-03-19,00:00:00,DRY,2.79,11.62,18.6,772.63,278.6
2024-03-20,00:00:00,DRY,5.25,8.93,9.2,773.24,283.1
2024-03-21,00:00:00,DRY,6.87,6.48,9.0,772.38,281.6
2024-03-22,00:00:00,WET,8.21,0.84,93.3,766.06,151.2
2024-03-23,00:00:00,WET,9.33,0.32,100.0,762.45,58.7
2024-03-24,00:00:00,DRY,8.14,0.71,100.0,761.75,106.4
2024-03-25,00:00:00,DRY,8.30,1.72,93.4,766.08,189.5
2024-03-26,00:00:00,DRY,6.55,2.90,53.9,769.73,213.7
2024-03-27,00:00:00,WET,6.29,0.05,79.1,769.73,183.1
2024-03-28,00:00:00,DRY,3.81,4.57,50.2,768.67,287.1
2024-03-29,00:00:00,WET,7.22,0.54,97.1,764.15,204.6
2024-03-30,00:00:00,WET,4.56,1.45,87.1,765.91,267.4
2024-03-31,00:00:00,DRY,5.98,5.73,40.5,766.81,293.4
2024-04-01,00:00:00,DRY,2.05,7.91,12.7,769.65,291.7
2024-04-02,00:00:00,DRY,2.99,10.24,14.5,772.14,304.1
2024-04-03,00:00:00,DRY,4.06,8.25,46.8,774.13,286.3
2024-04-04,00:00:00,DRY,2.24,10.78,13.0,774.04,281.4
2024-04-05,00:00:00,DRY,2.12,11.89,44.6,772.21,287.1
2024-04-06,00:00:00,DRY,6.25,8.52,66.9,767.67,242.6
2024-04-07,00:00:00,DRY,3.95,4.55,39.2,770.02,260.9
2024-04-08,00:00:00,DRY,7.40,8.05,39.2,773.92,289.3
2024-04-09,00:00:00,DRY,9.19,8.26,21.3,774.79,298.0
2024-04-10,00:00:00,DRY,6.46,12.36,2.3,774.62,299.0
2024-04-11,00:00:00,DRY,3.22,15.17,23.9,777.14,288.4
2024-04-12,00:00:00,DRY,2.26,15.75,23.5,778.82,289.6
2024-04-13,00:00:00,DRY,2.68,14.64,20.7,776.86,301.3
2024-04-14,00:00:00,DRY,4.17,13.98,20.2,774.67,309.7
2024-04-15,00:00:00,DRY,3.84,14.56,23.7,776.34,303.5
2024-04-16,00:00:00,DRY,3.42,15.33,30.2,777.72,297.8
2024-04-17,00:00:00,DRY,3.21,14.59,31.9,775.58,277.5
2024-04-18,00:00:00,DRY,6.72,11.47,28.2,772.45,289.4
2024-04-19,00:00:00,DRY,3.97,9.82,17.0,771.04,296.2
2024-04-20,00:00:00,DRY,3.60,8.23,31.5,771.29,290.8
2024-04-21,00:00:00,DRY,4.09,7.58,34.6,769.55,305.7
2024-04-22,00:00:00,DRY,1.79,10.35,13.7,768.57,284.4
2024-04-23,00:00:00,DRY,2.11,11.29,13.4,769.12,296.1
2024-04-24,00:00:00,DRY,2.01,11.53,20.0,771.28,300.2
